TimeCST,TemperatureF,Dew PointF,Humidity,Sea Level PressureIn,VisibilityMPH,Wind Direction,Wind SpeedMPH,Gust SpeedMPH,PrecipitationIn,Events,Conditions,WindDirDegrees,DateUTC
12:15 AM,12.2,3.2,67,30.14,10.0,NNW,24.2,27.6,N/A,,Overcast,340,2014-01-15 06:15:00
12:35 AM,12.2,1.4,62,30.14,10.0,NNW,21.9,26.5,N/A,,Overcast,340,2014-01-15 06:35:00
12:55 AM,12.2,1.4,62,30.14,10.0,NNW,15.0,-,N/A,,Overcast,340,2014-01-15 06:55:00
1:15 AM,12.2,1.4,62,30.14,10.0,NNW,16.1,-,N/A,,Overcast,340,2014-01-15 07:15:00
1:35 AM,10.4,1.4,67,30.13,10.0,NNW,17.3,-,N/A,,Overcast,340,2014-01-15 07:35:00
1:55 AM,10.4,1.4,67,30.13,10.0,NNW,11.5,-,N/A,,Overcast,340,2014-01-15 07:55:00
2:15 AM,10.4,1.4,67,30.14,10.0,NNW,12.7,-,N/A,,Overcast,330,2014-01-15 08:15:00
2:35 AM,10.4,1.4,67,30.15,10.0,NNW,11.5,-,N/A,,Overcast,330,2014-01-15 08:35:00
2:55 AM,10.4,1.4,67,30.15,10.0,NW,12.7,-,N/A,,Overcast,320,2014-01-15 08:55:00
3:15 AM,10.4,1.4,67,30.15,10.0,NW,11.5,-,N/A,,Overcast,320,2014-01-15 09:15:00
3:35 AM,10.4,1.4,67,30.14,10.0,NW,11.5,-,N/A,,Overcast,320,2014-01-15 09:35:00
3:55 AM,10.4,1.4,67,30.14,10.0,NW,9.2,-,N/A,,Overcast,320,2014-01-15 09:55:00
4:15 AM,10.4,1.4,67,30.14,10.0,WNW,9.2,-,N/A,,Overcast,300,2014-01-15 10:15:00
4:35 AM,8.6,1.4,73,30.13,10.0,West,9.2,-,N/A,,Overcast,280,2014-01-15 10:35:00
4:55 AM,8.6,-0.4,67,30.13,10.0,West,9.2,-,N/A,,Overcast,280,2014-01-15 10:55:00
5:15 AM,6.8,-0.4,72,30.12,10.0,West,6.9,-,N/A,,Overcast,270,2014-01-15 11:15:00
5:35 AM,6.8,-2.2,67,30.10,10.0,West,5.8,-,N/A,,Mostly Cloudy,260,2014-01-15 11:35:00
5:55 AM,3.2,-4.0,72,30.10,10.0,West,8.1,-,N/A,,Clear,270,2014-01-15 11:55:00
6:15 AM,3.2,-5.8,66,30.09,10.0,West,6.9,-,N/A,,Clear,280,2014-01-15 12:15:00
6:35 AM,1.4,-5.8,72,30.09,10.0,West,6.9,-,N/A,,Clear,280,2014-01-15 12:35:00
6:55 AM,1.4,-5.8,72,30.09,10.0,West,4.6,-,N/A,,Clear,270,2014-01-15 12:55:00
7:15 AM,-0.4,-7.6,72,30.07,10.0,Calm,Calm,-,N/A,,Clear,0,2014-01-15 13:15:00
7:35 AM,-0.4,-5.8,78,30.06,10.0,Calm,Calm,-,N/A,,Clear,0,2014-01-15 13:35:00
7:55 AM,-0.4,-5.8,78,30.08,10.0,WSW,8.1,-,N/A,,Clear,250,2014-01-15 13:55:00
8:15 AM,-0.4,-5.8,78,30.07,10.0,SW,5.8,-,N/A,,Clear,230,2014-01-15 14:15:00
8:35 AM,1.4,-4.0,78,30.07,10.0,WSW,3.5,-,N/A,,Clear,240,2014-01-15 14:35:00
8:55 AM,3.2,-2.2,78,30.07,10.0,SW,4.6,-,N/A,,Clear,220,2014-01-15 14:55:00
9:15 AM,3.2,-2.2,78,30.07,10.0,SSW,4.6,-,N/A,,Clear,200,2014-01-15 15:15:00
9:35 AM,5.0,-2.2,72,30.06,10.0,South,4.6,-,N/A,,Clear,180,2014-01-15 15:35:00
9:55 AM,5.0,-2.2,72,30.04,10.0,South,5.8,-,N/A,,Clear,170,2014-01-15 15:55:00
10:15 AM,6.8,-0.4,72,30.03,10.0,South,9.2,-,N/A,,Clear,190,2014-01-15 16:15:00
10:35 AM,8.6,1.4,73,30.02,10.0,SSW,9.2,-,N/A,,Clear,200,2014-01-15 16:35:00
10:55 AM,10.4,1.4,67,30.01,10.0,SSW,11.5,-,N/A,,Clear,200,2014-01-15 16:55:00
11:15 AM,12.2,1.4,62,29.99,10.0,SSW,12.7,-,N/A,,Clear,200,2014-01-15 17:15:00
11:35 AM,12.2,3.2,67,29.96,10.0,SW,16.1,-,N/A,,Mostly Cloudy,220,2014-01-15 17:35:00
11:55 AM,14.0,3.2,62,29.95,10.0,SSW,17.3,21.9,N/A,,Mostly Cloudy,210,2014-01-15 17:55:00
12:15 PM,14.0,3.2,62,29.92,10.0,SSW,17.3,-,N/A,,Mostly Cloudy,210,2014-01-15 18:15:00
12:35 PM,15.8,3.2,58,29.89,10.0,SSW,13.8,-,N/A,,Overcast,200,2014-01-15 18:35:00
12:55 PM,15.8,3.2,58,29.87,10.0,SSW,19.6,-,N/A,,Overcast,200,2014-01-15 18:55:00
1:15 PM,15.8,5.0,62,29.84,10.0,SSW,17.3,23.0,N/A,,Mostly Cloudy,200,2014-01-15 19:15:00
1:35 PM,17.6,5.0,58,29.81,10.0,SSW,19.6,-,N/A,,Mostly Cloudy,200,2014-01-15 19:35:00
1:55 PM,17.6,6.8,63,29.80,10.0,SSW,17.3,-,N/A,,Mostly Cloudy,200,2014-01-15 19:55:00
2:15 PM,19.4,6.8,58,29.77,10.0,SSW,21.9,27.6,N/A,,Scattered Clouds,200,2014-01-15 20:15:00
2:35 PM,19.4,8.6,63,29.76,10.0,South,17.3,24.2,N/A,,Partly Cloudy,190,2014-01-15 20:35:00
2:55 PM,21.2,8.6,58,29.74,10.0,South,19.6,26.5,N/A,,Mostly Cloudy,190,2014-01-15 20:55:00
3:15 PM,21.2,10.4,63,29.73,10.0,South,20.7,24.2,N/A,,Overcast,190,2014-01-15 21:15:00
3:35 PM,21.2,10.4,63,29.71,10.0,South,24.2,31.1,N/A,,Overcast,190,2014-01-15 21:35:00
3:55 PM,21.2,10.4,63,29.70,10.0,SSW,25.3,-,N/A,,Scattered Clouds,200,2014-01-15 21:55:00
4:15 PM,23.0,12.2,63,29.70,10.0,SSW,23.0,28.8,N/A,,Scattered Clouds,200,2014-01-15 22:15:00
4:35 PM,23.0,10.4,59,29.68,10.0,SSW,24.2,33.4,N/A,,Overcast,200,2014-01-15 22:35:00
4:55 PM,23.0,12.2,63,29.66,10.0,SSW,26.5,35.7,N/A,,Mostly Cloudy,200,2014-01-15 22:55:00
5:15 PM,24.8,12.2,59,29.66,10.0,SSW,20.7,32.2,N/A,,Scattered Clouds,200,2014-01-15 23:15:00
5:35 PM,24.8,12.2,59,29.65,10.0,South,23.0,29.9,N/A,,Mostly Cloudy,190,2014-01-15 23:35:00
5:55 PM,24.8,12.2,59,29.64,10.0,SSW,20.7,27.6,N/A,,Mostly Cloudy,200,2014-01-15 23:55:00
6:15 PM,24.8,14.0,64,29.63,10.0,SSW,24.2,28.8,N/A,,Clear,210,2014-01-16 00:15:00
6:35 PM,26.6,12.2,55,29.61,10.0,SSW,25.3,29.9,N/A,,Clear,210,2014-01-16 00:35:00
6:55 PM,26.6,14.0,59,29.61,10.0,SSW,23.0,-,N/A,,Clear,210,2014-01-16 00:55:00
7:15 PM,26.6,14.0,59,29.61,10.0,SSW,20.7,-,N/A,,Clear,210,2014-01-16 01:15:00
7:35 PM,26.6,15.8,64,29.60,10.0,SW,23.0,-,N/A,,Scattered Clouds,220,2014-01-16 01:35:00
7:55 PM,28.4,15.8,59,29.61,10.0,SW,24.2,-,N/A,,Scattered Clouds,230,2014-01-16 01:55:00
8:15 PM,30.2,17.6,60,29.61,10.0,WSW,21.9,27.6,N/A,,Partly Cloudy,240,2014-01-16 02:15:00
8:35 PM,30.2,19.4,64,29.57,10.0,SW,23.0,27.6,N/A,,Scattered Clouds,230,2014-01-16 02:35:00
8:55 PM,33.8,21.2,60,29.55,10.0,SW,20.7,-,N/A,,Mostly Cloudy,230,2014-01-16 02:55:00
9:15 PM,33.8,21.2,60,29.57,10.0,WSW,18.4,-,N/A,,Scattered Clouds,240,2014-01-16 03:15:00
9:35 PM,33.8,21.2,60,29.55,10.0,SW,16.1,-,N/A,,Clear,230,2014-01-16 03:35:00
9:55 PM,33.8,21.2,60,29.56,10.0,WSW,19.6,-,N/A,,Clear,250,2014-01-16 03:55:00
10:15 PM,33.8,23.0,65,29.56,10.0,WSW,18.4,-,N/A,,Clear,250,2014-01-16 04:15:00
10:35 PM,33.8,23.0,65,29.55,10.0,WSW,17.3,-,N/A,,Clear,250,2014-01-16 04:35:00
10:55 PM,33.8,23.0,65,29.56,10.0,West,18.4,-,N/A,,Clear,260,2014-01-16 04:55:00
11:15 PM,35.6,24.8,65,29.56,10.0,West,18.4,-,N/A,,Clear,270,2014-01-16 05:15:00
11:35 PM,33.8,24.8,70,29.55,10.0,West,17.3,-,N/A,,Clear,270,2014-01-16 05:35:00
11:55 PM,35.6,24.8,65,29.55,10.0,West,21.9,-,N/A,,Clear,280,2014-01-16 05:55:00